weather.gov     
National Weather Service

Terminal Aerodrome Forecast
NWS Homepage
This page is being discontinued on March 12, 2014.
The same data is available at this site. Please update your bookmarks.
Thank you, and we apologize for the inconvenience.
Please send an email to SR-SRH.Webmaster@noaa.gov with any concerns.


Current Version
Previous Version:    01  02  03  04  05  06  07  08  09  10  11  12  13  14  15  16  17  18  19  20  21  22  23  24  25  26  27  
[Printable]
582
FTUS45 KRIW 171700
TAFPNA
TAF
KPNA 171720Z 1718/1818 29006KT P6SM VCTS SCT080CB BKN120
      TEMPO 1718/1721 VRB15G30KT 5SM -TSRA BKN050CB
     FM172100 VRB10G15KT P6SM VCSH BKN100
     FM180200 30006KT P6SM SCT110
      AMD LTD TO CLD VIS AND WIND=


U.S. Dept. of Commerce
NOAA National Weather Service
1325 East West Highway
Silver Spring, MD 20910
E-mail: w-nws.webmaster@noaa.gov
Page last modified: May 16, 2007
NATIONAL WEATHER SERVICE: for Safety, for Work, for Fun - FOR LIFE